Weather History for KCKB - October, 2012

Change the Weather History Date:

Wednesday, October 31, 2012

  Actual Average Record
Temperature  
Mean Temperature 36 °F -  
Max Temperature 39 °F 63 °F 84 °F (1927)
Min Temperature 33 °F 35 °F 18 °F (1965)
Degree Days  
Heating Degree Days 29    
Moisture  
Dew Point 34 °F    
Average Humidity 91    
Maximum Humidity 100    
Minimum Humidity 87    
Precipitation  
Precipitation 0.41 in - - ()
Sea Level Pressure  
Sea Level Pressure 29.62 in    
Wind  
Wind Speed 11 mph (SW)    
Max Wind Speed 14 mph    
Max Gust Speed 20 mph    
Visibility 5 miles    
Events Rain , Snow    
Averages and records for this station are not official NWS values.
T = Trace of Precipitation, MM = Missing Value Source: NWS Daily Summary

Daily Weather History Graph

Daily Weather History Graph

Search for Another Location

Airport or City:

Trip Planner

Search our weather history database for the weather conditions in past years. The results will help you decide how hot, cold, wet, or windy it might be!

Date:

Astronomy

Oct. 31, 2012 Rise Set
Actual Time 7:48 AM EDT 6:20 PM EDT
Civil Twilight 7:20 AM EDT 6:48 PM EDT
Nautical Twilight 6:48 AM EDT 7:19 PM EDT
Astronomical Twilight 6:17 AM EDT 7:50 PM EDT
Moon 7:31 PM EDT (10/31) 9:27 AM EDT (10/31)
Length of Visible Light 11h 27m
Length of Day
10h 32m
Full, 97% of the Moon is Illuminated
Oct 31
Full
Nov 6
Last Quarter
Nov 13
New
Nov 20
First Quarter
Nov 28
Full

Hourly Weather History & Observations

Time (EDT) Temp. Windchill Dew Point Humidity Pressure Visibility Wind Dir Wind Speed Gust Speed Precip Events Conditions
12:53 AM 34.0 °F 25.0 °F 32.0 °F 92% 29.49 in 10.0 mi SSW 12.7 mph - 0.02 in   Overcast
1:53 AM 33.1 °F 25.5 °F 32.0 °F 96% 29.49 in 4.0 mi SSW 9.2 mph - 0.02 in Snow Light Snow
2:53 AM 34.0 °F 26.0 °F 32.0 °F 92% 29.51 in 4.0 mi SW 10.4 mph - 0.03 in Snow Light Snow
3:53 AM 34.0 °F 25.0 °F 32.0 °F 92% 29.53 in 6.0 mi SW 12.7 mph - 0.02 in Snow Light Snow
4:53 AM 34.0 °F 25.5 °F 32.0 °F 92% 29.54 in 6.0 mi SW 11.5 mph - 0.03 in   Overcast
5:53 AM 35.1 °F 27.4 °F 32.0 °F 89% 29.56 in 7.0 mi SW 10.4 mph - 0.03 in   Overcast
6:22 AM 35.6 °F 27.5 °F 32.0 °F 87% 29.56 in 10.0 mi SW 11.5 mph - 0.02 in   Overcast
6:53 AM 35.1 °F 26.9 °F 32.0 °F 89% 29.57 in 7.0 mi SW 11.5 mph - 0.04 in   Overcast
7:01 AM 35.6 °F 27.1 °F 32.0 °F 87% 29.57 in 6.0 mi SW 12.7 mph - N/A   Overcast
7:53 AM 35.1 °F 26.9 °F 33.1 °F 92% 29.59 in 7.0 mi SW 11.5 mph - 0.03 in   Overcast
8:06 AM 35.6 °F 28.0 °F 32.0 °F 87% 29.58 in 5.0 mi SW 10.4 mph - N/A   Overcast
8:21 AM 33.8 °F 25.3 °F 32.0 °F 93% 29.58 in 4.0 mi SSW 11.5 mph - 0.01 in   Overcast
8:53 AM 34.0 °F 25.5 °F 32.0 °F 92% 29.60 in 7.0 mi SW 11.5 mph - 0.03 in Snow Light Snow
9:53 AM 35.1 °F 26.9 °F 33.1 °F 92% 29.61 in 4.0 mi SW 11.5 mph - 0.03 in Rain Light Rain
10:53 AM 36.0 °F 27.5 °F 34.0 °F 93% 29.62 in 4.0 mi WSW 12.7 mph - 0.05 in Rain Light Rain
11:53 AM 37.0 °F 28.9 °F 35.1 °F 93% 29.62 in 9.0 mi SW 12.7 mph - 0.04 in   Overcast
12:53 PM 37.9 °F 29.6 °F 35.1 °F 89% 29.62 in 8.0 mi WSW 13.8 mph - N/A   Overcast
1:53 PM 37.9 °F 29.6 °F 35.1 °F 89% 29.62 in 10.0 mi SW 13.8 mph - N/A   Overcast
3:53 PM 39.0 °F 32.8 °F 36.0 °F 89% 29.65 in 5.0 mi WSW 9.2 mph - 0.00 in Rain Light Rain
4:04 PM 39.2 °F 32.0 °F 35.6 °F 87% 29.64 in 2.0 mi SW 11.5 mph - 0.00 in Rain Light Rain
4:16 PM 39.2 °F 33.0 °F 35.6 °F 87% 29.64 in 2.0 mi SW 9.2 mph - 0.00 in Rain Light Rain
4:53 PM 39.0 °F 32.8 °F 37.0 °F 93% 29.65 in 2.0 mi SW 9.2 mph - 0.01 in Rain Light Rain
4:55 PM 39.2 °F 32.0 °F 37.4 °F 93% 29.65 in 3.0 mi WSW 11.5 mph - 0.00 in Rain Light Rain
5:02 PM 39.2 °F 32.5 °F 37.4 °F 93% 29.65 in 3.0 mi WSW 10.4 mph - 0.00 in Rain Light Rain
5:53 PM 39.0 °F 32.8 °F 37.0 °F 93% 29.67 in 7.0 mi SW 9.2 mph - 0.01 in Rain Light Rain
6:00 PM 39.2 °F 32.0 °F 37.4 °F 93% 29.66 in 4.0 mi SW 11.5 mph - 0.00 in Rain Light Rain
6:41 PM 37.4 °F 31.4 °F 37.4 °F 100% 29.68 in 4.0 mi SW 8.1 mph - 0.01 in Rain Light Rain
6:51 PM 37.4 °F 29.8 °F 35.6 °F 93% 29.68 in 4.0 mi SSW 11.5 mph - 0.01 in Rain Light Rain
6:53 PM 37.9 °F 30.9 °F 36.0 °F 93% 29.69 in 4.0 mi SSW 10.4 mph - 0.01 in Rain Light Rain
7:53 PM 37.9 °F 31.5 °F 36.0 °F 93% 29.70 in 3.0 mi SW 9.2 mph - 0.01 in Rain Light Rain
8:41 PM 39.2 °F 31.6 °F 35.6 °F 87% 29.71 in 3.0 mi WSW 12.7 mph 19.6 mph 0.00 in Rain Light Rain
8:53 PM 37.9 °F 30.9 °F 36.0 °F 93% 29.72 in 3.0 mi WSW 10.4 mph - 0.00 in Rain Light Rain
9:53 PM 37.9 °F 30.5 °F 36.0 °F 93% 29.73 in 3.0 mi WSW 11.5 mph - 0.00 in Rain Light Rain
10:53 PM 37.9 °F 31.5 °F 36.0 °F 93% 29.74 in 10.0 mi SW 9.2 mph - 0.00 in Rain Light Rain
11:53 PM 37.9 °F 30.0 °F 36.0 °F 93% 29.73 in 10.0 mi SW 12.7 mph - 0.00 in Rain Light Rain